Location: Fauquembergues
(50.6005°N, 2.0987°E)
Time: 10:45:04
(UTC+00:00)

Spot 4 Rocket - Pass Details

Date: 14 July 2020
Orbit: 777 x 781 km, 98.7° (Epoch: 05 August)

Event Time Altitude Azimuth Distance (km) Brightness Sun altitude
Rises 03:01:48 0° 16° (NNE) 3,275 8.6 -7.2°
Reaches altitude 10° 03:04:08 10° 18° (NNE) 2,343 7.7 -6.9°
Maximum altitude 03:09:18 76° 104° (ESE) 810 4.3 -6.4°
Drops below altitude 10° 03:14:27 10° 190° (S) 2,328 6.0 -5.8°
Enters shadow 03:16:29 - 192° (SSW) 3,143 6.7 -5.6°
